This demonstration page uses our WeatherBlox Daily Observations layout. Learn more.

Left ArrowRight Arrow

36.19886, -115.1175

Hourly Observations for February 17, 2017

Temp ( °F °C ) Dew Point ( °F °C ) Humidity (%) Winds ( mph kmh ) Pressure ( in mb ) Visibility ( mi km ) Precip ( " mm )
12:53 am 00:53 Clear 62 16.7 40 4.4 44 44 S 9 15 29.80 1009 10 16 0.00 0.00
1:53 am 01:53 Cloudy 61 16.1 42 5.6 50 50 SSE 10 17 29.79 1009 10 16 0.00 0.00
2:53 am 02:53 Cloudy with Light Rain 60 15.6 42 5.6 52 52 SSW 15 24 29.78 1009 10 16 0.00 0.03
3:53 am 03:53 Cloudy with Light Rain 58 14.4 44 6.7 60 60 SSW 12 19 29.78 1009 10 16 0.00 0.03
4:53 am 04:53 Cloudy with Light Rain 56 13.3 47 8.3 72 72 SSW 3 6 29.79 1009 10 16 0.00 0.03
5:53 am 05:53 Cloudy 55 12.8 48 8.9 77 77 SE 9 15 29.78 1008 10 16 0.00 0.03
6:53 am 06:53 Cloudy 55 12.8 47 8.3 74 74 E 3 6 29.78 1008 10 16 0.00 0.00
7:53 am 07:53 Cloudy 56 13.3 47 8.3 72 72 WSW 3 6 29.78 1009 10 16 0.00 0.03
8:53 am 08:53 Cloudy with Light Rain 56 13.3 44 6.7 65 65 SSW 14 22 29.80 1009 10 16 0.01 0.25
9:53 am 09:53 Cloudy with Light Rain 52 11.1 45 7.2 77 77 SSW 7 11 29.81 1010 10 16 0.03 0.76
10:53 am 10:53 Cloudy 53 11.7 46 7.8 77 77 ESE 9 15 29.76 1008 10 16 0.01 0.25
11:53 am 11:53 Mostly Cloudy 54 12.2 45 7.2 72 72 ESE 9 15 29.70 1006 10 16 0.00 0.00
12:53 pm 12:53 Mostly Sunny 55 12.8 43 6.1 64 64 E 5 7 29.68 1005 10 16 0.00 0.00
1:53 pm 13:53 Sunny 56 13.3 44 6.7 65 65 E 5 7 29.65 1004 10 16 0.00 0.00
2:53 pm 14:53 Sunny 57 13.9 41 5 55 55 Calm 29.63 1003 10 16 0.00 0.00
3:53 pm 15:53 Sunny 58 14.4 42 5.6 56 56 Calm 29.61 1003 10 16 0.00 0.00
4:53 pm 16:53 Cloudy 57 13.9 44 6.7 62 62 Calm 29.59 1002 10 16 0.00 0.00
5:53 pm 17:53 Cloudy 59 15 40 4.4 49 49 S 12 19 29.59 1002 10 16 0.00 0.00
6:53 pm 18:53 Clear 60 15.6 36 2.2 41 41 SSE 15 24 29.58 1002 10 16 0.00 0.00
7:53 pm 19:53 Partly Cloudy 60 15.6 37 2.8 42 42 S 18 30 29.60 1002 10 16 0.00 0.00
8:53 pm 20:53 Clear 60 15.6 38 3.3 44 44 S 17 28 29.60 1002 10 16 0.00 0.00
9:53 pm 21:53 Mostly Cloudy 59 15 37 2.8 44 44 S 16 26 29.61 1003 10 16 0.00 0.00
10:53 pm 22:53 Cloudy 59 15 36 2.2 42 42 S 9 15 29.60 1002 10 16 0.00 0.00
11:53 pm 23:53 Cloudy 57 13.9 38 3.3 49 49 SSE 9 15 29.59 1002 10 16 0.00 0.00

Powered by AerisWeather